Home > Weather > Rzeszów > Past weeks

Flag for Poland Past Weather in Rzeszów, Poland — Yesterday and Last 2 Weeks

Now
77 °F

Thunderstorms. Scattered clouds.


Feels Like: 78 °F
Forecast: 65 / 85 °F
Wind: 2 mph from Southeast

Location: Rzeszow-Jasionka

Current Time: Jul 27, 2016 at 7:23:56 PM

Latest Report: Jul 27, 2016 at 7:00 PM


Visibility: N/A

Pressure: 29.95 "Hg

Humidity: 83%

Dew Point: 72 °F

Location of RzeszówLocation

Past Weather in Rzeszów — Graph

°F

Rzeszów Temperature Yesterday

Maximum temperature yesterday: 88 °F (at 1:30 PM)
Minimum temperature yesterday: 63 °F (at 2:00 AM)
Average temperature yesterday: 74 °F

High & Low Weather Summary for the Past Weeks

 TemperatureHumidityPressure
High88 °F (Jul 26, 1:30 PM)100% (Jul 13, 3:00 AM)30.15 "Hg (Jul 13, 3:00 AM)
Low48 °F (Jul 21, 4:30 AM)28% (Jul 21, 4:30 PM)29.62 "Hg (Jul 14, 4:00 PM)
Average67 °F73%29.99 "Hg
* Reported Jul 12 6:00 PM — Jul 27 6:00 PM, Rzeszów, Weather by CustomWeather, © 2016

Note: Actual official high and low records may vary slightly from our data, if they occured in-between our weather recording intervals... More about our weather records

Advertising

Rzeszów Weather History for the Previous 24 Hours

Scroll right to see more
 ConditionsComfort  
Time TempWeatherWind HumidityBarometerVisibility
6:00 PM
Wed, Jul 27
77 °FThunderstorms. Partly sunny.18 mph65%29.95 "Hg4 mi
5:30 PM86 °FPassing clouds.9 mph43%29.95 "HgN/A
5:00 PM86 °FPassing clouds.10 mph40%29.95 "HgN/A
4:30 PM88 °FPassing clouds.12 mph40%29.95 "HgN/A
4:00 PM86 °FPassing clouds.7 mph43%29.95 "HgN/A
3:30 PM86 °FSunny.9 mph43%29.95 "Hg10 mi
3:00 PM88 °FPassing clouds.9 mph38%29.95 "HgN/A
2:30 PM86 °FPassing clouds.6 mph43%29.95 "HgN/A
2:00 PM86 °FPassing clouds.9 mph43%29.98 "HgN/A
1:30 PM84 °FPassing clouds.8 mph48%29.98 "HgN/A
1:00 PM84 °FPassing clouds.5 mph51%30.01 "HgN/A
12:30 PM84 °FPassing clouds.3 mph51%30.01 "HgN/A
12:00 PM82 °FPassing clouds.5 mph55%30.04 "HgN/A
11:30 AM81 °FPassing clouds.6 mph58%30.04 "HgN/A
11:00 AM79 °FPassing clouds.6 mph61%30.04 "HgN/A
10:30 AM79 °FPassing clouds.3 mph61%30.04 "HgN/A
10:00 AM77 °FPassing clouds.3 mph69%30.04 "HgN/A
9:30 AM75 °FPassing clouds.5 mph74%30.04 "HgN/A
9:00 AM73 °FPassing clouds.5 mph78%30.04 "HgN/A
8:30 AM72 °FPassing clouds.6 mph78%30.04 "HgN/A
8:00 AM68 °FSunny.6 mph88%30.04 "Hg10 mi
7:30 AM68 °FSunny.6 mph88%30.04 "Hg10 mi
7:00 AM64 °FClear.3 mph94%30.04 "Hg5 mi
6:30 AM63 °FClear.3 mph100%30.04 "Hg5 mi
6:00 AM63 °FClear.5 mph100%30.04 "Hg4 mi
5:30 AM63 °FFog.3 mph94%30.04 "Hg4 mi
5:00 AM63 °FClear.3 mph94%30.04 "Hg4 mi
4:30 AM64 °FClear.3 mph94%30.04 "Hg10 mi
4:00 AM64 °FClear.3 mph94%30.04 "Hg10 mi
3:30 AM64 °FClear.5 mph94%30.04 "Hg10 mi
3:00 AM64 °FClear.3 mph94%30.04 "Hg10 mi
2:30 AM64 °FClear.2 mph94%30.04 "Hg10 mi
2:00 AM64 °FClear.3 mph94%30.04 "Hg10 mi
1:30 AM66 °FClear.6 mph88%30.04 "Hg10 mi
1:00 AM66 °FClear.6 mph94%30.04 "Hg10 mi
12:30 AM66 °FClear.6 mph88%30.04 "Hg10 mi
12:00 AM68 °FClear.5 mph88%30.04 "Hg10 mi
11:30 PM
Tue, Jul 26
68 °FClear.5 mph88%30.04 "Hg10 mi
11:00 PM70 °FClear.8 mph83%30.04 "Hg10 mi
10:30 PM72 °FClear.8 mph78%30.04 "Hg10 mi
10:00 PM73 °FClear.5 mph74%30.04 "Hg10 mi
9:30 PM73 °FClear.7 mph74%30.04 "Hg10 mi
9:00 PM75 °FSunny.2 mph69%30.01 "Hg10 mi
8:30 PM75 °FSunny.5 mph69%30.01 "Hg10 mi
8:00 PM77 °FSunny.3 mph65%30.01 "Hg10 mi
7:30 PM77 °FPassing clouds.3 mph65%30.01 "HgN/A
7:00 PM79 °FSunny.6 mph61%30.01 "Hg10 mi
Weather by CustomWeather, © 2016

See weather overviewHow to use our weather pages